| time (UTC) | temp F | wind direction | speed MPH | gust MPH | rain 1hr in | rain 24hr in | rain mn in | humidity % | barometer mb |
| 20260506101500 | 46 | 325 | 3.0 | 6.0 | 0.04 | 0.71 | 0.36 | 97 | 1005.9 |
| 20260506100059 | 47 | 334 | 4.0 | 9.0 | 0.04 | 0.70 | 0.35 | 97 | 1006.0 |
| 20260506094621 | 47 | 347 | 3.0 | 9.0 | 0.03 | 0.69 | 0.34 | 97 | 1005.7 |
| 20260506093054 | 48 | 332 | 2.0 | 10.0 | 0.03 | 0.67 | 0.32 | 97 | 1005.4 |
| 20260506091551 | 49 | 345 | 4.0 | 9.0 | 0.05 | 0.67 | 0.32 | 97 | 1005.3 |
| 20260506090049 | 49 | 322 | 3.0 | 7.0 | 0.06 | 0.66 | 0.31 | 97 | 1005.2 |
| 20260506084548 | 49 | 355 | 3.0 | 7.0 | 0.07 | 0.66 | 0.31 | 97 | 1004.9 |
| 20260506083047 | 49 | 344 | 3.0 | 7.0 | 0.06 | 0.64 | 0.28 | 97 | 1005.0 |
| 20260506081545 | 49 | 329 | 3.0 | 6.0 | 0.05 | 0.62 | 0.27 | 97 | 1005.0 |
| 20260506073040 | 50 | 330 | 2.0 | 5.0 | 0.05 | 0.57 | 0.23 | 97 | 1004.8 |
| 20260506071541 | 50 | 321 | 2.0 | 6.0 | 0.05 | 0.56 | 0.22 | 97 | 1004.9 |
| 20260506061533 | 51 | 57 | 2.0 | 4.0 | 0.07 | 0.52 | 0.17 | 97 | 1005.1 |
| 20260506044514 | 57 | 319 | 3.0 | 6.0 | 0.06 | 0.40 | 0.05 | 97 | 1006.0 |
| 20260506043013 | 57 | 253 | 1.0 | 3.0 | 0.05 | 0.38 | 0.03 | 97 | 1006.0 |
| 20260506041514 | 57 | 271 | 1.0 | 3.0 | 0.05 | 0.37 | 0.02 | 97 | 1006.2 |
| 20260506040010 | 57 | 266 | 1.0 | 3.0 | 0.04 | 0.35 | 0.00 | 97 | 1006.4 |
| 20260506034510 | 58 | 275 | 3.0 | 6.0 | 0.04 | 0.34 | 0.34 | 97 | 1006.4 |
| 20260506033007 | 58 | 244 | 3.0 | 5.0 | 0.05 | 0.33 | 0.33 | 97 | 1006.6 |
| 20260506031507 | 58 | 270 | 2.0 | 7.0 | 0.06 | 0.32 | 0.32 | 97 | 1006.7 |
| 20260506030014 | 58 | 217 | 5.0 | 9.0 | 0.06 | 0.31 | 0.31 | 97 | 1006.8 |
| 20260506024516 | 58 | 224 | 1.0 | 4.0 | 0.05 | 0.30 | 0.30 | 96 | 1006.7 |
| 20260506023005 | 57 | 224 | 1.0 | 2.0 | 0.04 | 0.28 | 0.28 | 96 | 1006.5 |
| 20260506021504 | 58 | 223 | 1.0 | 4.0 | 0.04 | 0.26 | 0.26 | 96 | 1006.5 |
| 20260506020005 | 58 | 227 | 1.0 | 3.0 | 0.03 | 0.25 | 0.25 | 96 | 1006.6 |
| 20260506014502 | 58 | 217 | 2.0 | 5.0 | 0.03 | 0.25 | 0.25 | 95 | 1006.6 |
| 20260506013002 | 58 | 263 | 1.0 | 3.0 | 0.03 | 0.24 | 0.24 | 95 | 1006.6 |
| 20260506011600 | 58 | 295 | 0.0 | 1.0 | 0.07 | 0.22 | 0.22 | 95 | 1006.4 |
| 20260506010059 | 58 | 311 | 0.0 | 1.0 | 0.18 | 0.22 | 0.22 | 94 | 1006.2 |
| 20260506004559 | 58 | 311 | 0.0 | 3.0 | 0.18 | 0.22 | 0.22 | 94 | 1006.2 |
| 20260506003057 | 59 | 312 | 2.0 | 8.0 | 0.17 | 0.21 | 0.21 | 92 | 1006.5 |
| 20260506001556 | 62 | 286 | 10.0 | 16.0 | 0.09 | 0.13 | 0.13 | 87 | 1006.8 |
| 20260506000052 | 64 | 259 | 0.0 | 0.0 | 0.00 | 0.04 | 0.04 | 83 | 1005.2 |
| 20260505234554 | 64 | 259 | 0.0 | 3.0 | 0.00 | 0.04 | 0.04 | 82 | 1005.3 |
| 20260505233050 | 65 | 257 | 1.0 | 2.0 | 0.00 | 0.04 | 0.04 | 80 | 1005.4 |
| 20260505231600 | 65 | 257 | 1.0 | 3.0 | 0.00 | 0.04 | 0.04 | 79 | 1005.5 |
| 20260505230057 | 66 | 227 | 0.0 | 1.0 | 0.00 | 0.04 | 0.04 | 77 | 1005.5 |
| 20260505224549 | 66 | 227 | 0.0 | 0.0 | 0.00 | 0.04 | 0.04 | 77 | 1005.5 |
| 20260505223048 | 66 | 227 | 1.0 | 4.0 | 0.00 | 0.04 | 0.04 | 76 | 1005.8 |
| 20260505221548 | 66 | 229 | 1.0 | 3.0 | 0.00 | 0.04 | 0.04 | 79 | 1005.9 |
| 20260505220047 | 65 | 229 | 1.0 | 4.0 | 0.00 | 0.04 | 0.04 | 80 | 1005.7 |
| 20260505214549 | 64 | 267 | 1.0 | 3.0 | 0.00 | 0.04 | 0.04 | 82 | 1005.8 |
| 20260505213054 | 64 | 275 | 1.0 | 3.0 | 0.00 | 0.04 | 0.04 | 83 | 1005.8 |
| 20260505211550 | 64 | 272 | 2.0 | 4.0 | 0.00 | 0.04 | 0.04 | 83 | 1005.9 |
| 20260505210046 | 64 | 246 | 2.0 | 5.0 | 0.00 | 0.04 | 0.04 | 83 | 1006.0 |
| 20260505204545 | 64 | 275 | 2.0 | 5.0 | 0.00 | 0.04 | 0.04 | 83 | 1006.1 |
| 20260505203046 | 65 | 253 | 3.0 | 7.0 | 0.00 | 0.04 | 0.04 | 78 | 1006.1 |
| 20260505201547 | 67 | 223 | 4.0 | 11.0 | 0.00 | 0.04 | 0.04 | 69 | 1006.0 |
| 20260505200046 | 68 | 221 | 4.0 | 10.0 | 0.00 | 0.04 | 0.04 | 67 | 1005.9 |
| 20260505194546 | 68 | 209 | 3.0 | 8.0 | 0.00 | 0.04 | 0.04 | 68 | 1006.0 |
| 20260505193043 | 68 | 221 | 4.0 | 11.0 | 0.00 | 0.04 | 0.04 | 67 | 1006.4 |
| 20260505191554 | 68 | 225 | 5.0 | 10.0 | 0.00 | 0.04 | 0.04 | 66 | 1006.4 |
| 20260505190041 | 68 | 234 | 6.0 | 11.0 | 0.00 | 0.04 | 0.04 | 66 | 1006.6 |
| 20260505184541 | 68 | 246 | 5.0 | 12.0 | 0.00 | 0.04 | 0.04 | 66 | 1006.8 |
| 20260505183041 | 67 | 261 | 7.0 | 14.0 | 0.00 | 0.04 | 0.04 | 65 | 1006.8 |
| 20260505181540 | 69 | 236 | 11.0 | 21.0 | 0.00 | 0.04 | 0.04 | 62 | 1006.6 |
| 20260505180051 | 70 | 219 | 9.0 | 23.0 | 0.00 | 0.04 | 0.04 | 63 | 1006.6 |
| 20260505174548 | 69 | 211 | 12.0 | 24.0 | 0.00 | 0.04 | 0.04 | 63 | 1006.6 |
| 20260505173039 | 70 | 228 | 11.0 | 17.0 | 0.00 | 0.04 | 0.04 | 62 | 1006.5 |
| 20260505171537 | 70 | 228 | 9.0 | 23.0 | 0.00 | 0.04 | 0.04 | 64 | 1006.6 |
| 20260505170038 | 70 | 208 | 13.0 | 19.0 | 0.00 | 0.04 | 0.04 | 61 | 1006.4 |
| 20260505164540 | 70 | 207 | 14.0 | 28.0 | 0.00 | 0.04 | 0.04 | 62 | 1006.4 |
| 20260505163035 | 70 | 236 | 13.0 | 23.0 | 0.00 | 0.04 | 0.04 | 63 | 1006.2 |
| 20260505161534 | 70 | 221 | 14.0 | 24.0 | 0.01 | 0.04 | 0.04 | 62 | 1006.1 |
| 20260505153026 | 68 | 217 | 13.0 | 30.0 | 0.01 | 0.04 | 0.04 | 69 | 1006.4 |
| 20260505151523 | 67 | 205 | 15.0 | 26.0 | 0.00 | 0.03 | 0.03 | 71 | 1006.5 |
| 20260505124505 | 64 | 218 | 10.0 | 17.0 | 0.00 | 0.00 | 0.00 | 71 | 1006.0 |
| 20260505123001 | 64 | 206 | 10.0 | 19.0 | 0.00 | 0.00 | 0.00 | 71 | 1006.0 |
| 20260505121559 | 64 | 202 | 9.0 | 17.0 | 0.00 | 0.00 | 0.00 | 70 | 1006.0 |
| 20260505114602 | 63 | 201 | 11.0 | 17.0 | 0.00 | 0.00 | 0.00 | 72 | 1006.0 |
| 20260505113057 | 62 | 215 | 9.0 | 17.0 | 0.00 | 0.00 | 0.00 | 74 | 1006.0 |
| 20260505111553 | 62 | 196 | 9.0 | 16.0 | 0.00 | 0.00 | 0.00 | 74 | 1005.9 |